Location: Newark
(47.7394°N, 8.0008°E)
Time: 01:54:57
(UTC+00:00)

N. Korean satellite - Pass Details

Date: 19 December 2019
Orbit: 454 x 507 km, 97.2° (Epoch: 23 January)

Event Time Altitude Azimuth Distance (km) Brightness Sun altitude
Rises 05:50:46 0° 6° (N) 2,520 10.1 -13.0°
Reaches altitude 10° 05:52:54 10° 0° (N) 1,630 9.0 -12.6°
Maximum altitude 05:56:13 43° 288° (WNW) 658 6.7 -12.1°
Drops below altitude 10° 05:59:29 10° 216° (SW) 1,597 9.1 -11.6°
Sets 06:01:33 0° 209° (SSW) 2,462 10.1 -11.3°
